Oak Ridge, TN

5:49 PM EDT on July 24, 2017 (GMT -0400)
Oak Ridge

Weather History for KOQT - August, 2013

Change the Weather History Date:

Tuesday, August 13, 2013

  Actual Average (KTYS) Record (KTYS)
Temperature  
Mean Temperature 76 °F -  
Max Temperature 84 °F 85 °F 100 °F (1925)
Min Temperature 71 °F 66 °F 53 °F (1964)
Cooling Degree Days 12    
Growing Degree Days 26 (Base 50)    
Moisture  
Dew Point 70 °F    
Average Humidity 81    
Maximum Humidity 94    
Minimum Humidity 54    
Precipitation  
Precipitation 0.02 in - - ()
Sea Level Pressure  
Sea Level Pressure 29.94 in    
Wind  
Wind Speed 2 mph (SW)    
Max Wind Speed 8 mph    
Max Gust Speed -    
Visibility 10 miles    
Events Rain    
Averages and records for this station are not official NWS values.
T = Trace of Precipitation, MM = Missing Value Source: NWS Daily Summary

Daily Weather History Graph

Daily Weather History Graph

Search for Another Location

Airport or City:

Trip Planner

Search our weather history database for the weather conditions in past years. The results will help you decide how hot, cold, wet, or windy it might be!

Date:

Astronomy

Aug. 13, 2013 Rise Set
Actual Time 6:53 AM EDT 8:28 PM EDT
Civil Twilight 6:26 AM EDT 8:56 PM EDT
Nautical Twilight 5:53 AM EDT 9:28 PM EDT
Astronomical Twilight 5:18 AM EDT 10:03 PM EDT
Moon 1:32 PM EDT (8/13) No Moon Set
Length of Visible Light 14h 29m
Length of Day
13h 34m
Waxing Crescent, 41% of the Moon is Illuminated
Aug 13
Waxing Crescent
Aug 14
First Quarter
Aug 20
Full
Aug 28
Last Quarter
Sep 5
New

Hourly Weather History & Observations

Time (EDT) Temp. Heat Index Dew Point Humidity Pressure Visibility Wind Dir Wind Speed Gust Speed Precip Events Conditions
12:20 AM 75.2 °F - 71.6 °F 89% 30.00 in 10.0 mi Calm Calm - N/A   Mostly Cloudy
12:36 AM 75.2 °F - 71.6 °F 89% 29.99 in 10.0 mi Calm Calm - N/A   Mostly Cloudy
12:53 AM 75.0 °F - 72.0 °F 90% 29.93 in 10.0 mi Calm Calm - N/A   Overcast
1:08 AM 75.2 °F - 71.6 °F 89% 29.98 in 10.0 mi Calm Calm - N/A   Overcast
1:53 AM 75.0 °F - 73.0 °F 94% 29.93 in 10.0 mi Calm Calm - N/A   Scattered Clouds
2:53 AM 73.9 °F - 72.0 °F 93% 29.94 in 10.0 mi SSW 3.5 mph - N/A   Mostly Cloudy
3:16 AM 73.4 °F - 71.6 °F 94% 29.97 in 10.0 mi SSW 4.6 mph - N/A   Overcast
3:24 AM 73.4 °F - 71.6 °F 94% 29.97 in 10.0 mi SW 3.5 mph - N/A   Mostly Cloudy
3:53 AM 73.9 °F - 71.1 °F 91% 29.92 in 10.0 mi SW 3.5 mph - N/A   Mostly Cloudy
4:53 AM 73.0 °F - 70.0 °F 90% 29.90 in 10.0 mi Calm Calm - N/A   Clear
5:53 AM 72.0 °F - 70.0 °F 93% 29.91 in 10.0 mi Calm Calm - N/A   Clear
6:18 AM 71.6 °F - 69.8 °F 94% 29.96 in 10.0 mi Variable 3.5 mph - N/A   Partly Cloudy
6:32 AM 71.6 °F - 69.8 °F 94% 29.96 in 10.0 mi SSW 5.8 mph - N/A   Mostly Cloudy
6:53 AM 72.0 °F - 70.0 °F 93% 29.92 in 10.0 mi Variable 4.6 mph - N/A   Overcast
7:53 AM 72.0 °F - 70.0 °F 93% 29.92 in 10.0 mi SSW 4.6 mph - N/A   Overcast
8:53 AM 73.9 °F - 71.1 °F 91% 29.93 in 10.0 mi SSW 6.9 mph - N/A   Overcast
9:02 AM 73.4 °F - 71.6 °F 94% 29.97 in 10.0 mi SW 4.6 mph - N/A   Overcast
9:37 AM 73.4 °F - 69.8 °F 88% 29.98 in 10.0 mi Calm Calm - N/A   Overcast
9:53 AM 75.0 °F - 70.0 °F 84% 29.94 in 10.0 mi Variable 4.6 mph - N/A   Overcast
10:33 AM 77.0 °F - 69.8 °F 78% 29.98 in 10.0 mi SW 4.6 mph - N/A   Overcast
10:53 AM 78.1 °F - 70.0 °F 76% 29.94 in 10.0 mi Variable 4.6 mph - 0.00 in Rain Light Rain
11:20 AM 78.8 °F - 71.6 °F 78% 29.98 in 10.0 mi Variable 5.8 mph - 0.01 in   Overcast
11:41 AM 75.2 °F - 71.6 °F 89% 29.99 in 4.0 mi Variable 4.6 mph - 0.02 in Rain Light Rain
11:53 AM 79.0 °F - 73.0 °F 82% 29.94 in 10.0 mi Variable 4.6 mph - 0.02 in   Mostly Cloudy
12:16 PM 80.6 °F 84.6 °F 71.6 °F 74% 29.97 in 10.0 mi Variable 4.6 mph - N/A   Overcast
12:50 PM 78.8 °F - 71.6 °F 78% 29.97 in 10.0 mi Variable 3.5 mph - 0.00 in Rain Light Rain
12:53 PM 78.1 °F - 72.0 °F 81% 29.92 in 10.0 mi Calm Calm - 0.00 in Rain Light Rain
1:03 PM 78.8 °F - 71.6 °F 78% 29.96 in 10.0 mi Variable 3.5 mph - 0.00 in Rain Light Rain
1:53 PM 82.9 °F 87.5 °F 71.1 °F 67% 29.90 in 10.0 mi Variable 6.9 mph - 0.00 in   Scattered Clouds
2:53 PM 82.9 °F 87.0 °F 70.0 °F 65% 29.89 in 10.0 mi WSW 8.1 mph - N/A   Scattered Clouds
3:53 PM 82.9 °F 86.5 °F 69.1 °F 63% 29.89 in 10.0 mi Variable 5.8 mph - 0.00 in   Mostly Cloudy
4:53 PM 82.9 °F 86.5 °F 69.1 °F 63% 29.88 in 10.0 mi Variable 4.6 mph - N/A   Mostly Cloudy
5:53 PM 82.9 °F 84.6 °F 64.9 °F 54% 29.87 in 10.0 mi West 5.8 mph - N/A   Partly Cloudy
6:53 PM 82.9 °F 85.4 °F 66.9 °F 58% 29.87 in 10.0 mi Calm Calm - N/A   Partly Cloudy
7:53 PM 80.1 °F 82.7 °F 68.0 °F 67% 29.89 in 10.0 mi Calm Calm - N/A   Partly Cloudy
8:53 PM 78.1 °F - 66.9 °F 68% 29.89 in 10.0 mi Calm Calm - N/A   Partly Cloudy
9:53 PM 77.0 °F - 68.0 °F 74% 29.91 in 10.0 mi Calm Calm - N/A   Mostly Cloudy
10:53 PM 75.0 °F - 66.9 °F 76% 29.93 in 10.0 mi Variable 3.5 mph - N/A   Mostly Cloudy
11:53 PM 73.9 °F - 64.0 °F 71% 29.94 in 10.0 mi Calm Calm - N/A   Clear